Regional Weather Roundup
Issued by NWS

Home | Current Version | Previous Version | Text Only | Print | Product List | Glossary Off
Versions: 1 2 3 4 5 6 7 8 9 10 11 12 13 14 15 16 17 18 19 20 21 22 23 24 25 26 27 28 29 30 31 32 33 34 35 36 37 38 39 40 41 42 43 44 45 46 47 48 49 50

000
ASUS43 KMKX 011611
RWRWI

WISCONSIN REGIONAL WEATHER ROUNDUP
NATIONAL WEATHER SERVICE MILWAUKEE/SULLIVAN WI
1100 AM CDT MON SEP 01 2014

NOTE: "FAIR" INDICATES FEW OR NO CLOUDS BELOW 12,000 FEET WITH NO
SIGNIFICANT WEATHER AND/OR OBSTRUCTIONS TO VISIBILITY.

WIZ001-002-006>008-014>016-023>028-011700-
NORTHWEST WISCONSIN

CITY           SKY/WX    TMP DP  RH WIND       PRES   REMARKS
SUPERIOR ARPT  PTSUNNY   67  60  77 W9        29.64R
ASHLAND        CLOUDY    66  62  87 W8        29.63R
HAYWARD        CLOUDY    67  64  90 CALM      29.66R
SIREN          PTSUNNY   67  62  86 NW8       29.68R
RICE LAKE      CLOUDY    67  62  84 W7        29.69R
LADYSMITH      CLOUDY    66  64  93 W7        29.67R
EAU CLAIRE     CLOUDY    69  66  90 SW8       29.66R
MENOMONIE      PTSUNNY   72  64  75 W9        29.68R
NEW RICHMOND   CLOUDY    68  65  89 NW9       29.70R
OSCEOLA        CLOUDY    67  66  97 W7        29.73R
$$

WIZ003>005-009-010-017-018-011700-
NORTH CENTRAL WISCONSIN

CITY           SKY/WX    TMP DP  RH WIND       PRES   REMARKS
WOODRUFF       LGT RAIN  63  61  94 SW3       29.63F
RHINELANDER    LGT RAIN  63  61  93 SE10      29.62F
EAGLE RIVER    RAIN      63  63 100 CALM      29.64F
LAND O LAKES   LGT RAIN  64  63  96 SW7       29.65S
PHILLIPS       CLOUDY    63  62  96 SW7       29.65R
TOMAHAWK       LGT RAIN  63  61  95 CALM      29.64F
MEDFORD        CLOUDY    64  62  94 S9        29.66S
MERRILL        LGT RAIN  63  63 100 S6        29.65F
$$

WIZ029-030-035-036-043>047-011700-
CENTRAL WISCONSIN

CITY           SKY/WX    TMP DP  RH WIND       PRES   REMARKS
WAUSAU         CLOUDY    66  64  93 SW9       29.66F
MOSINEE        CLOUDY    64  64 100 S7        29.70S
MARSHFIELD     CLOUDY    66  66 100 SW9       29.67S
STEVENS POINT  CLOUDY    64  62  95 SW7       29.70S
WAUPACA        LGT RAIN  69  67  94 S6        29.71F
WAUTOMA        CLOUDY    68  66  93 SW7       29.72R FOG
WISC RAPIDS    CLOUDY    67  64  90 SW7       29.70S
CAMP DOUGLAS   CLOUDY    68  68 100 SW8       29.69F
$$

WIZ011>013-019>022-031-037>040-048>050-011700-
NORTHEAST WISCONSIN

CITY           SKY/WX    TMP DP  RH WIND       PRES   REMARKS
ANTIGO         LGT RAIN  62  62  98 CALM      29.67F
STURGEON BAY   CLOUDY    70  64  83 SW12G18   29.70S
GREEN BAY      CLOUDY    67  64  90 SW7       29.71F
MANITOWOC      LGT RAIN  70  68  93 W3        29.72F
APPLETON       CLOUDY    68  66  94 SW6       29.72F
CLINTONVILLE   LGT RAIN  64  63  94 S8        29.69F
OSHKOSH        CLOUDY    72  65  78 SW6       29.71F
$$

WIZ032>034-041-042-053>061-011700-
SOUTHWEST WISCONSIN

CITY           SKY/WX    TMP DP  RH WIND       PRES   REMARKS
LA CROSSE      PTSUNNY   73  67  81 SW8       29.68R
SPARTA         CLOUDY    66  64  94 W5        29.70R
VIROQUA        CLOUDY    65  65 100 SW8       29.72R
BOSCOBEL       CLOUDY    70  66  87 SW10      29.72S
PRAIRIE DU CHI CLOUDY    70  65  84 SW7       29.73R
PLATTEVILLE    CLOUDY    72  66  82 SW13G23   29.76S
$$

WIZ056-057-062-063-064-067-068-011700-
SOUTH CENTRAL WISCONSIN

CITY           SKY/WX    TMP DP  RH WIND       PRES   REMARKS
BARABOO/DELLS  LGT RAIN  66  63  87 S7        29.70F
LONE ROCK      CLOUDY    72  65  78 SW9       29.73R
WATERTOWN      CLOUDY    72  70  92 SW8       29.75R
MADISON        PTSUNNY   73  63  70 SW8       29.73R
MIDDLETON      CLOUDY    73  63  70 SW9       29.73F
MONROE         MOSUNNY   73  64  73 SW16      29.76F
JANESVILLE     PTSUNNY   73  64  73 SW14G24   29.76R
$$

WIZ051-052-058>065-066-070>072-011700-
SOUTHEAST WISCONSIN

CITY           SKY/WX    TMP DP  RH WIND       PRES   REMARKS
MILWAUKEE      LGT RAIN  73  69  87 SW14      29.75R
WAUKESHA       PTSUNNY   70  68  94 SW9       29.76R FOG
MILWAUKEE/TIMM LGT RAIN  72  68  88 SW14      29.75R
RACINE         LGT RAIN  74  69  85 SW12      29.77R
BURLINGTON     CLOUDY    70  68  93 SW9       29.76S
KENOSHA        CLOUDY    74  70  87 SW14      29.76R
FOND DU LAC    CLOUDY    72  66  81 SW6       29.73R
SHEBOYGAN      CLOUDY    72  69  90 W3        29.72S FOG
WEST BEND      LGT RAIN  72  66  83 SW12      29.73R
JUNEAU         CLOUDY    70  65  84 S9        29.75R
$$

LSZ147-162-011700-
LAKE SUPERIOR

STATION/POSITION TIME  TEMP    WIND        PRES    WAVE
                       AIR SEA DIR/SP/G            HT/PER
                 (UTC) (F)     (DEG/KT/KT) (MB)    (FT/S)
W MID LAKE BUOY  1550   60 58  230/ 10/ 14 1001.0R   2/ 4
DEVILS ISLAND    1600   62     260/ 12/ 15 1002.0R
PORT WING        1500   63     290/ 11/ 13 1003.0R
SAXON HARBOR     1500   67     200/  1/  4 1002.7R
$$

LMZ867-665-643>646-011700-
LAKE MICHIGAN

STATION/POSITION TIME  TEMP    WIND        PRES    WAVE
                       AIR SEA DIR/SP/G            HT/PER
                 (UTC) (F)     (DEG/KT/KT) (MB)    (FT/S)
N MID LAKE BUOY  1550   67 65  210/ 16/ 19 1004.3R   4/ 5
NORTHPORT PIER   1500   68     180/  5/ 11 1005.1R
KEWAUNEE LAKESHO 1500   69     210/  8/ 14 1005.1R
SHEBOYGAN LAKESH 1600   70 55   CALM  /  1 1006.3F
ATWATER BUOY     1500   73     230/ 12/ 16 1007.5R
MILWAUKEE LAKESH 1500   74     240/ 11/ 16   N/A
S MID LAKE BUOY  1550   72 69  200/ 17/ 21 1007.6R   4/ 5
KENOSHA   LAKESH 1600   74     220/  9/ 14 1007.8R
$$

TC  - TEMPERATURE IN CELSIUS
VSB - VISIBILITY IN STATUTE MILES
WCI - WIND CHILL INDEX
HX  - HEAT INDEX




USA.gov is the U.S. government's official web portal to all federal, state and local government web resources and services.